Location: Proctor
(47.8934°N, 114.3048°W)
Time: 11:40:14
(UTC+00:00)

AO-91 - Pass Details

Date: 28 June 2022
Orbit: 450 x 797 km, 97.7° (Epoch: 09 August)

Event Time Altitude Azimuth Distance (km) Brightness Sun altitude
Rises 06:22:40 0° 15° (NNE) 2,592 ? -16.7°
Reaches altitude 10° 06:24:49 10° 18° (NNE) 1,666 ? -16.8°
Maximum altitude 06:28:20 68° 102° (ESE) 504 ? -17.0°
Enters shadow 06:29:13 45° 167° (SSE) 638 ? -17.1°
